Datum / Uhrzeit;kW
01.01.2023 00:15;32
01.01.2023 00:30;31
01.01.2023 00:45;27
01.01.2023 01:00;22
01.01.2023 01:15;22
01.01.2023 01:30;35
01.01.2023 01:45;38
01.01.2023 02:00;35
01.01.2023 02:15;26
01.01.2023 02:30;23
01.01.2023 02:45;47
01.01.2023 03:00;65
01.01.2023 03:15;66
01.01.2023 03:30;60
01.01.2023 03:45;63
01.01.2023 04:00;63
01.01.2023 04:15;63
01.01.2023 04:30;63
01.01.2023 04:45;73
01.01.2023 05:00;69
01.01.2023 05:15;79
01.01.2023 05:30;72
01.01.2023 05:45;70
01.01.2023 06:00;73
01.01.2023 06:15;57
01.01.2023 06:30;49
01.01.2023 06:45;54
01.01.2023 07:00;65
01.01.2023 07:15;59
01.01.2023 07:30;56
01.01.2023 07:45;55
01.01.2023 08:00;53
01.01.2023 08:15;54
01.01.2023 08:30;32
01.01.2023 08:45;31
01.01.2023 09:00;60
01.01.2023 09:15;117
01.01.2023 09:30;157
01.01.2023 09:45;217
01.01.2023 10:00;331
01.01.2023 10:15;460
01.01.2023 10:30;486
01.01.2023 10:45;560
01.01.2023 11:00;634
01.01.2023 11:15;719
01.01.2023 11:30;774
01.01.2023 11:45;807
01.01.2023 12:00;782
01.01.2023 12:15;585
01.01.2023 12:30;361
01.01.2023 12:45;364
01.01.2023 13:00;402
01.01.2023 13:15;306
01.01.2023 13:30;274
01.01.2023 13:45;311
01.01.2023 14:00;233
01.01.2023 14:15;153
01.01.2023 14:30;124
01.01.2023 14:45;93
01.01.2023 15:00;96
01.01.2023 15:15;153
01.01.2023 15:30;174
01.01.2023 15:45;155
01.01.2023 16:00;133
01.01.2023 16:15;100
01.01.2023 16:30;68
01.01.2023 16:45;60
01.01.2023 17:00;59
01.01.2023 17:15;68
01.01.2023 17:30;70
01.01.2023 17:45;67
01.01.2023 18:00;66
01.01.2023 18:15;62
01.01.2023 18:30;59
01.01.2023 18:45;53
01.01.2023 19:00;47
01.01.2023 19:15;48
01.01.2023 19:30;49
01.01.2023 19:45;60
01.01.2023 20:00;26
01.01.2023 20:15;23
01.01.2023 20:30;26
01.01.2023 20:45;23
01.01.2023 21:00;25
01.01.2023 21:15;25
01.01.2023 21:30;24
01.01.2023 21:45;58
01.01.2023 22:00;55
01.01.2023 22:15;32
01.01.2023 22:30;22
01.01.2023 22:45;32
01.01.2023 23:00;31
01.01.2023 23:15;30
01.01.2023 23:30;27
01.01.2023 23:45;28
02.01.2023 00:00;28
02.01.2023 00:15;26
02.01.2023 00:30;23
02.01.2023 00:45;24
02.01.2023 01:00;27
02.01.2023 01:15;38
02.01.2023 01:30;34
02.01.2023 01:45;33
02.01.2023 02:00;60
02.01.2023 02:15;75
02.01.2023 02:30;65
02.01.2023 02:45;67
02.01.2023 03:00;63
02.01.2023 03:15;66
02.01.2023 03:30;78
02.01.2023 03:45;67
02.01.2023 04:00;64
02.01.2023 04:15;80
02.01.2023 04:30;79
02.01.2023 04:45;74
02.01.2023 05:00;75
02.01.2023 05:15;75
02.01.2023 05:30;75
02.01.2023 05:45;67
02.01.2023 06:00;55
02.01.2023 06:15;52
02.01.2023 06:30;50
02.01.2023 06:45;49
02.01.2023 07:00;48
02.01.2023 07:15;39
02.01.2023 07:30;15
02.01.2023 07:45;23
02.01.2023 08:00;21
02.01.2023 08:15;23
02.01.2023 08:30;23
02.01.2023 08:45;22
02.01.2023 09:00;43
02.01.2023 09:15;71
02.01.2023 09:30;87
02.01.2023 09:45;121
02.01.2023 10:00;140
02.01.2023 10:15;195
02.01.2023 10:30;271
02.01.2023 10:45;244
02.01.2023 11:00;297
02.01.2023 11:15;282
02.01.2023 11:30;210
02.01.2023 11:45;194
02.01.2023 12:00;177
02.01.2023 12:15;213
02.01.2023 12:30;210
02.01.2023 12:45;179
02.01.2023 13:00;187
02.01.2023 13:15;181
02.01.2023 13:30;175
02.01.2023 13:45;201
02.01.2023 14:00;242
02.01.2023 14:15;344
02.01.2023 14:30;372
02.01.2023 14:45;277
02.01.2023 15:00;189
02.01.2023 15:15;132
02.01.2023 15:30;89
02.01.2023 15:45;68
02.01.2023 16:00;59
02.01.2023 16:15;58
02.01.2023 16:30;59
02.01.2023 16:45;63
02.01.2023 17:00;69
02.01.2023 17:15;74
02.01.2023 17:30;76
02.01.2023 17:45;78
02.01.2023 18:00;79
02.01.2023 18:15;74
02.01.2023 18:30;80
02.01.2023 18:45;77
02.01.2023 19:00;78
02.01.2023 19:15;78
02.01.2023 19:30;83
02.01.2023 19:45;85
02.01.2023 20:00;89
02.01.2023 20:15;75
02.01.2023 20:30;78
02.01.2023 20:45;80
02.01.2023 21:00;83
02.01.2023 21:15;86
02.01.2023 21:30;88
02.01.2023 21:45;97
02.01.2023 22:00;97
02.01.2023 22:15;100
02.01.2023 22:30;102
02.01.2023 22:45;106
02.01.2023 23:00;111
02.01.2023 23:15;117
02.01.2023 23:30;125
02.01.2023 23:45;119
03.01.2023 00:00;118
03.01.2023 00:15;121
03.01.2023 00:30;126
03.01.2023 00:45;118
03.01.2023 01:00;121
03.01.2023 01:15;128
03.01.2023 01:30;136
03.01.2023 01:45;134
03.01.2023 02:00;136
03.01.2023 02:15;130
03.01.2023 02:30;124
03.01.2023 02:45;126
03.01.2023 03:00;121
03.01.2023 03:15;122
03.01.2023 03:30;121
03.01.2023 03:45;126
03.01.2023 04:00;129
03.01.2023 04:15;125
03.01.2023 04:30;120
03.01.2023 04:45;118
03.01.2023 05:00;118
03.01.2023 05:15;112
03.01.2023 05:30;114
03.01.2023 05:45;106
03.01.2023 06:00;88
03.01.2023 06:15;82
03.01.2023 06:30;82
03.01.2023 06:45;73
03.01.2023 07:00;68
03.01.2023 07:15;65
03.01.2023 07:30;63
03.01.2023 07:45;62
03.01.2023 08:00;59
03.01.2023 08:15;58
03.01.2023 08:30;60
03.01.2023 08:45;69
03.01.2023 09:00;102
03.01.2023 09:15;89
03.01.2023 09:30;139
03.01.2023 09:45;263
03.01.2023 10:00;428
03.01.2023 10:15;557
03.01.2023 10:30;677
03.01.2023 10:45;843
03.01.2023 11:00;986
03.01.2023 11:15;1.019
03.01.2023 11:30;968
03.01.2023 11:45;848
03.01.2023 12:00;838
03.01.2023 12:15;707
03.01.2023 12:30;670
03.01.2023 12:45;585
03.01.2023 13:00;578
03.01.2023 13:15;585
03.01.2023 13:30;502
03.01.2023 13:45;487
03.01.2023 14:00;511
03.01.2023 14:15;491
03.01.2023 14:30;493
03.01.2023 14:45;485
03.01.2023 15:00;514
03.01.2023 15:15;463
03.01.2023 15:30;399
03.01.2023 15:45;261
03.01.2023 16:00;162
03.01.2023 16:15;90
03.01.2023 16:30;66
03.01.2023 16:45;71
03.01.2023 17:00;81
03.01.2023 17:15;76
03.01.2023 17:30;73
03.01.2023 17:45;75
03.01.2023 18:00;74
03.01.2023 18:15;72
03.01.2023 18:30;78
03.01.2023 18:45;81
03.01.2023 19:00;84
03.01.2023 19:15;81
03.01.2023 19:30;91
03.01.2023 19:45;90
03.01.2023 20:00;89
03.01.2023 20:15;95
03.01.2023 20:30;98
03.01.2023 20:45;96
03.01.2023 21:00;101
03.01.2023 21:15;104
03.01.2023 21:30;104
03.01.2023 21:45;103
03.01.2023 22:00;100
03.01.2023 22:15;102
03.01.2023 22:30;106
03.01.2023 22:45;115
03.01.2023 23:00;120
03.01.2023 23:15;126
03.01.2023 23:30;125
03.01.2023 23:45;130
04.01.2023 00:00;133
04.01.2023 00:15;128
04.01.2023 00:30;134
04.01.2023 00:45;137
04.01.2023 01:00;133
04.01.2023 01:15;139
04.01.2023 01:30;153
04.01.2023 01:45;151
04.01.2023 02:00;146
04.01.2023 02:15;143
04.01.2023 02:30;144
04.01.2023 02:45;146
04.01.2023 03:00;147
04.01.2023 03:15;148
04.01.2023 03:30;146
04.01.2023 03:45;148
04.01.2023 04:00;148
04.01.2023 04:15;148
04.01.2023 04:30;142
04.01.2023 04:45;129
04.01.2023 05:00;138
04.01.2023 05:15;142
04.01.2023 05:30;138
04.01.2023 05:45;115
04.01.2023 06:00;93
04.01.2023 06:15;84
04.01.2023 06:30;77
04.01.2023 06:45;75
04.01.2023 07:00;75
04.01.2023 07:15;67
04.01.2023 07:30;61
04.01.2023 07:45;59
04.01.2023 08:00;61
04.01.2023 08:15;60
04.01.2023 08:30;63
04.01.2023 08:45;63
04.01.2023 09:00;64
04.01.2023 09:15;69
04.01.2023 09:30;76
04.01.2023 09:45;83
04.01.2023 10:00;103
04.01.2023 10:15;123
04.01.2023 10:30;136
04.01.2023 10:45;143
04.01.2023 11:00;153
04.01.2023 11:15;144
04.01.2023 11:30;138
04.01.2023 11:45;170
04.01.2023 12:00;196
04.01.2023 12:15;240
04.01.2023 12:30;249
04.01.2023 12:45;225
04.01.2023 13:00;203
04.01.2023 13:15;201
04.01.2023 13:30;196
04.01.2023 13:45;197
04.01.2023 14:00;196
04.01.2023 14:15;226
04.01.2023 14:30;225
04.01.2023 14:45;226
04.01.2023 15:00;247
04.01.2023 15:15;215
04.01.2023 15:30;145
04.01.2023 15:45;133
04.01.2023 16:00;92
04.01.2023 16:15;74
04.01.2023 16:30;58
04.01.2023 16:45;49
04.01.2023 17:00;50
04.01.2023 17:15;51
04.01.2023 17:30;56
04.01.2023 17:45;55
04.01.2023 18:00;62
04.01.2023 18:15;62
04.01.2023 18:30;63
04.01.2023 18:45;62
04.01.2023 19:00;66
04.01.2023 19:15;61
04.01.2023 19:30;72
04.01.2023 19:45;77
04.01.2023 20:00;72
04.01.2023 20:15;72
04.01.2023 20:30;77
04.01.2023 20:45;83
04.01.2023 21:00;88
04.01.2023 21:15;97
04.01.2023 21:30;91
04.01.2023 21:45;93
04.01.2023 22:00;94
04.01.2023 22:15;100
04.01.2023 22:30;103
04.01.2023 22:45;102
04.01.2023 23:00;106
04.01.2023 23:15;115
04.01.2023 23:30;115
04.01.2023 23:45;116
05.01.2023 00:00;117
05.01.2023 00:15;117
05.01.2023 00:30;116
05.01.2023 00:45;115
05.01.2023 01:00;108
05.01.2023 01:15;110
05.01.2023 01:30;118
05.01.2023 01:45;120
05.01.2023 02:00;115
05.01.2023 02:15;113
05.01.2023 02:30;111
05.01.2023 02:45;109
05.01.2023 03:00;104
05.01.2023 03:15;108
05.01.2023 03:30;104
05.01.2023 03:45;103
05.01.2023 04:00;106
05.01.2023 04:15;108
05.01.2023 04:30;104
05.01.2023 04:45;98
05.01.2023 05:00;96
05.01.2023 05:15;90
05.01.2023 05:30;90
05.01.2023 05:45;86
05.01.2023 06:00;70
05.01.2023 06:15;65
05.01.2023 06:30;68
05.01.2023 06:45;69
05.01.2023 07:00;70
05.01.2023 07:15;54
05.01.2023 07:30;55
05.01.2023 07:45;52
05.01.2023 08:00;48
05.01.2023 08:15;35
05.01.2023 08:30;28
05.01.2023 08:45;34
05.01.2023 09:00;46
05.01.2023 09:15;67
05.01.2023 09:30;95
05.01.2023 09:45;136
05.01.2023 10:00;176
05.01.2023 10:15;251
05.01.2023 10:30;312
05.01.2023 10:45;339
05.01.2023 11:00;375
05.01.2023 11:15;492
05.01.2023 11:30;550
05.01.2023 11:45;574
05.01.2023 12:00;632
05.01.2023 12:15;581
05.01.2023 12:30;507
05.01.2023 12:45;553
05.01.2023 13:00;623
05.01.2023 13:15;600
05.01.2023 13:30;656
05.01.2023 13:45;549
05.01.2023 14:00;443
05.01.2023 14:15;370
05.01.2023 14:30;316
05.01.2023 14:45;301
05.01.2023 15:00;319
05.01.2023 15:15;325
05.01.2023 15:30;281
05.01.2023 15:45;176
05.01.2023 16:00;94
05.01.2023 16:15;83
05.01.2023 16:30;61
05.01.2023 16:45;73
05.01.2023 17:00;75
05.01.2023 17:15;72
05.01.2023 17:30;71
05.01.2023 17:45;67
05.01.2023 18:00;63
05.01.2023 18:15;63
05.01.2023 18:30;74
05.01.2023 18:45;76
05.01.2023 19:00;72
05.01.2023 19:15;82
05.01.2023 19:30;83
05.01.2023 19:45;81
05.01.2023 20:00;100
05.01.2023 20:15;138
05.01.2023 20:30;144
05.01.2023 20:45;129
05.01.2023 21:00;121
05.01.2023 21:15;120
05.01.2023 21:30;125
05.01.2023 21:45;130
05.01.2023 22:00;135
05.01.2023 22:15;136
05.01.2023 22:30;153
05.01.2023 22:45;161
05.01.2023 23:00;153
05.01.2023 23:15;165
05.01.2023 23:30;132
05.01.2023 23:45;115
06.01.2023 00:00;115
06.01.2023 00:15;118
06.01.2023 00:30;121
06.01.2023 00:45;119
06.01.2023 01:00;109
06.01.2023 01:15;107
06.01.2023 01:30;118
06.01.2023 01:45;122
06.01.2023 02:00;118
06.01.2023 02:15;115
06.01.2023 02:30;119
06.01.2023 02:45;113
06.01.2023 03:00;109
06.01.2023 03:15;111
06.01.2023 03:30;113
06.01.2023 03:45;114
06.01.2023 04:00;113
06.01.2023 04:15;109
06.01.2023 04:30;110
06.01.2023 04:45;118
06.01.2023 05:00;122
06.01.2023 05:15;114
06.01.2023 05:30;115
06.01.2023 05:45;105
06.01.2023 06:00;91
06.01.2023 06:15;62
06.01.2023 06:30;68
06.01.2023 06:45;64
06.01.2023 07:00;59
06.01.2023 07:15;56
06.01.2023 07:30;53
06.01.2023 07:45;50
06.01.2023 08:00;48
06.01.2023 08:15;34
06.01.2023 08:30;32
06.01.2023 08:45;35
06.01.2023 09:00;53
06.01.2023 09:15;92
06.01.2023 09:30;106
06.01.2023 09:45;163
06.01.2023 10:00;197
06.01.2023 10:15;217
06.01.2023 10:30;238
06.01.2023 10:45;235
06.01.2023 11:00;278
06.01.2023 11:15;355
06.01.2023 11:30;456
06.01.2023 11:45;478
06.01.2023 12:00;594
06.01.2023 12:15;855
06.01.2023 12:30;977
06.01.2023 12:45;902
06.01.2023 13:00;714
06.01.2023 13:15;608
06.01.2023 13:30;655
06.01.2023 13:45;581
06.01.2023 14:00;551
06.01.2023 14:15;544
06.01.2023 14:30;572
06.01.2023 14:45;648
06.01.2023 15:00;610
06.01.2023 15:15;589
06.01.2023 15:30;489
06.01.2023 15:45;387
06.01.2023 16:00;256
06.01.2023 16:15;138
06.01.2023 16:30;104
06.01.2023 16:45;89
06.01.2023 17:00;87
06.01.2023 17:15;85
06.01.2023 17:30;85
06.01.2023 17:45;83
06.01.2023 18:00;80
06.01.2023 18:15;83
06.01.2023 18:30;89
06.01.2023 18:45;88
06.01.2023 19:00;90
06.01.2023 19:15;86
06.01.2023 19:30;88
06.01.2023 19:45;86
06.01.2023 20:00;87
06.01.2023 20:15;87
06.01.2023 20:30;93
06.01.2023 20:45;94
06.01.2023 21:00;95
06.01.2023 21:15;89
06.01.2023 21:30;94
06.01.2023 21:45;95
06.01.2023 22:00;102
06.01.2023 22:15;107
06.01.2023 22:30;110
06.01.2023 22:45;112
06.01.2023 23:00;110
06.01.2023 23:15;115
06.01.2023 23:30;123
06.01.2023 23:45;118
07.01.2023 00:00;114
07.01.2023 00:15;120
07.01.2023 00:30;108
07.01.2023 00:45;107
07.01.2023 01:00;108
07.01.2023 01:15;111
07.01.2023 01:30;128
07.01.2023 01:45;127
07.01.2023 02:00;123
07.01.2023 02:15;114
07.01.2023 02:30;114
07.01.2023 02:45;113
07.01.2023 03:00;109
07.01.2023 03:15;103
07.01.2023 03:30;104
07.01.2023 03:45;103
07.01.2023 04:00;105
07.01.2023 04:15;102
07.01.2023 04:30;106
07.01.2023 04:45;117
07.01.2023 05:00;110
07.01.2023 05:15;110
07.01.2023 05:30;106
07.01.2023 05:45;107
07.01.2023 06:00;105
07.01.2023 06:15;99
07.01.2023 06:30;110
07.01.2023 06:45;126
07.01.2023 07:00;101
07.01.2023 07:15;105
07.01.2023 07:30;121
07.01.2023 07:45;125
07.01.2023 08:00;115
07.01.2023 08:15;100
07.01.2023 08:30;117
07.01.2023 08:45;126
07.01.2023 09:00;134
07.01.2023 09:15;142
07.01.2023 09:30;144
07.01.2023 09:45;153
07.01.2023 10:00;191
07.01.2023 10:15;267
07.01.2023 10:30;387
07.01.2023 10:45;489
07.01.2023 11:00;551
07.01.2023 11:15;579
07.01.2023 11:30;579
07.01.2023 11:45;521
07.01.2023 12:00;438
07.01.2023 12:15;403
07.01.2023 12:30;394
07.01.2023 12:45;380
07.01.2023 13:00;339
07.01.2023 13:15;316
07.01.2023 13:30;302
07.01.2023 13:45;293
07.01.2023 14:00;312
07.01.2023 14:15;357
07.01.2023 14:30;338
07.01.2023 14:45;300
07.01.2023 15:00;287
07.01.2023 15:15;352
07.01.2023 15:30;364
07.01.2023 15:45;331
07.01.2023 16:00;325
07.01.2023 16:15;234
07.01.2023 16:30;147
07.01.2023 16:45;109
07.01.2023 17:00;102
07.01.2023 17:15;98
07.01.2023 17:30;108
07.01.2023 17:45;114
07.01.2023 18:00;112
07.01.2023 18:15;109
07.01.2023 18:30;99
07.01.2023 18:45;97
07.01.2023 19:00;95
07.01.2023 19:15;95
07.01.2023 19:30;102
07.01.2023 19:45;106
07.01.2023 20:00;105
07.01.2023 20:15;101
07.01.2023 20:30;105
07.01.2023 20:45;105
07.01.2023 21:00;96
07.01.2023 21:15;102
07.01.2023 21:30;100
07.01.2023 21:45;119
07.01.2023 22:00;122
07.01.2023 22:15;129
07.01.2023 22:30;134
07.01.2023 22:45;135
07.01.2023 23:00;115
07.01.2023 23:15;110
07.01.2023 23:30;108
07.01.2023 23:45;114
08.01.2023 00:00;124
08.01.2023 00:15;127
08.01.2023 00:30;126
08.01.2023 00:45;122
08.01.2023 01:00;119
08.01.2023 01:15;117
08.01.2023 01:30;124
08.01.2023 01:45;121
08.01.2023 02:00;120
08.01.2023 02:15;108
08.01.2023 02:30;103
08.01.2023 02:45;111
08.01.2023 03:00;113
08.01.2023 03:15;103
08.01.2023 03:30;96
08.01.2023 03:45;97
08.01.2023 04:00;99
08.01.2023 04:15;100
08.01.2023 04:30;101
08.01.2023 04:45;108
08.01.2023 05:00;108
08.01.2023 05:15;120
08.01.2023 05:30;117
08.01.2023 05:45;115
08.01.2023 06:00;116
08.01.2023 06:15;110
08.01.2023 06:30;108
08.01.2023 06:45;109
08.01.2023 07:00;109
08.01.2023 07:15;120
08.01.2023 07:30;115
08.01.2023 07:45;112
08.01.2023 08:00;115
08.01.2023 08:15;118
08.01.2023 08:30;125
08.01.2023 08:45;120
08.01.2023 09:00;137
08.01.2023 09:15;138
08.01.2023 09:30;142
08.01.2023 09:45;141
08.01.2023 10:00;164
08.01.2023 10:15;198
08.01.2023 10:30;235
08.01.2023 10:45;280
08.01.2023 11:00;323
08.01.2023 11:15;367
08.01.2023 11:30;492
08.01.2023 11:45;672
08.01.2023 12:00;982
08.01.2023 12:15;776
08.01.2023 12:30;626
08.01.2023 12:45;619
08.01.2023 13:00;495
08.01.2023 13:15;491
08.01.2023 13:30;403
08.01.2023 13:45;308
08.01.2023 14:00;358
08.01.2023 14:15;336
08.01.2023 14:30;224
08.01.2023 14:45;270
08.01.2023 15:00;314
08.01.2023 15:15;271
08.01.2023 15:30;222
08.01.2023 15:45;193
08.01.2023 16:00;239
08.01.2023 16:15;236
08.01.2023 16:30;150
08.01.2023 16:45;120
08.01.2023 17:00;107
08.01.2023 17:15;102
08.01.2023 17:30;106
08.01.2023 17:45;104
08.01.2023 18:00;101
08.01.2023 18:15;104
08.01.2023 18:30;104
08.01.2023 18:45;102
08.01.2023 19:00;102
08.01.2023 19:15;105
08.01.2023 19:30;103
08.01.2023 19:45;103
08.01.2023 20:00;108
08.01.2023 20:15;107
08.01.2023 20:30;108
08.01.2023 20:45;106
08.01.2023 21:00;109
08.01.2023 21:15;105
08.01.2023 21:30;104
08.01.2023 21:45;109
08.01.2023 22:00;108
08.01.2023 22:15;121
08.01.2023 22:30;134
08.01.2023 22:45;137
08.01.2023 23:00;135
08.01.2023 23:15;127
08.01.2023 23:30;126
08.01.2023 23:45;128
09.01.2023 00:00;128
09.01.2023 00:15;124
09.01.2023 00:30;129
09.01.2023 00:45;124
09.01.2023 01:00;123
09.01.2023 01:15;125
09.01.2023 01:30;136
09.01.2023 01:45;133
09.01.2023 02:00;136
09.01.2023 02:15;127
09.01.2023 02:30;125
09.01.2023 02:45;123
09.01.2023 03:00;121
09.01.2023 03:15;117
09.01.2023 03:30;117
09.01.2023 03:45;119
09.01.2023 04:00;121
09.01.2023 04:15;117
09.01.2023 04:30;119
09.01.2023 04:45;116
09.01.2023 05:00;116
09.01.2023 05:15;109
09.01.2023 05:30;104
09.01.2023 05:45;99
09.01.2023 06:00;91
09.01.2023 06:15;69
09.01.2023 06:30;71
09.01.2023 06:45;67
09.01.2023 07:00;66
09.01.2023 07:15;60
09.01.2023 07:30;56
09.01.2023 07:45;53
09.01.2023 08:00;48
09.01.2023 08:15;36
09.01.2023 08:30;34
09.01.2023 08:45;38
09.01.2023 09:00;71
09.01.2023 09:15;81
09.01.2023 09:30;88
09.01.2023 09:45;113
09.01.2023 10:00;137
09.01.2023 10:15;191
09.01.2023 10:30;250
09.01.2023 10:45;302
09.01.2023 11:00;323
09.01.2023 11:15;306
09.01.2023 11:30;303
09.01.2023 11:45;376
09.01.2023 12:00;482
09.01.2023 12:15;454
09.01.2023 12:30;359
09.01.2023 12:45;313
09.01.2023 13:00;363
09.01.2023 13:15;380
09.01.2023 13:30;404
09.01.2023 13:45;452
09.01.2023 14:00;449
09.01.2023 14:15;506
09.01.2023 14:30;463
09.01.2023 14:45;454
09.01.2023 15:00;410
09.01.2023 15:15;345
09.01.2023 15:30;412
09.01.2023 15:45;362
09.01.2023 16:00;278
09.01.2023 16:15;158
09.01.2023 16:30;81
09.01.2023 16:45;68
09.01.2023 17:00;75
09.01.2023 17:15;64
09.01.2023 17:30;61
09.01.2023 17:45;59
09.01.2023 18:00;68
09.01.2023 18:15;73
09.01.2023 18:30;77
09.01.2023 18:45;72
09.01.2023 19:00;73
09.01.2023 19:15;76
09.01.2023 19:30;81
09.01.2023 19:45;81
09.01.2023 20:00;78
09.01.2023 20:15;77
09.01.2023 20:30;81
09.01.2023 20:45;85
09.01.2023 21:00;89
09.01.2023 21:15;91
09.01.2023 21:30;95
09.01.2023 21:45;97
09.01.2023 22:00;102
09.01.2023 22:15;102
09.01.2023 22:30;108
09.01.2023 22:45;119
09.01.2023 23:00;117
09.01.2023 23:15;130
09.01.2023 23:30;132
09.01.2023 23:45;140
10.01.2023 00:00;136
10.01.2023 00:15;139
10.01.2023 00:30;141
10.01.2023 00:45;144
10.01.2023 01:00;140
10.01.2023 01:15;145
10.01.2023 01:30;161
10.01.2023 01:45;157
10.01.2023 02:00;158
10.01.2023 02:15;149
10.01.2023 02:30;147
10.01.2023 02:45;149
10.01.2023 03:00;148
10.01.2023 03:15;146
10.01.2023 03:30;147
10.01.2023 03:45;148
10.01.2023 04:00;151
10.01.2023 04:15;144
10.01.2023 04:30;141
10.01.2023 04:45;136
10.01.2023 05:00;139
10.01.2023 05:15;132
10.01.2023 05:30;133
10.01.2023 05:45;119
10.01.2023 06:00;106
10.01.2023 06:15;78
10.01.2023 06:30;65
10.01.2023 06:45;66
10.01.2023 07:00;68
10.01.2023 07:15;60
10.01.2023 07:30;57
10.01.2023 07:45;54
10.01.2023 08:00;51
10.01.2023 08:15;35
10.01.2023 08:30;32
10.01.2023 08:45;44
10.01.2023 09:00;82
10.01.2023 09:15;129
10.01.2023 09:30;157
10.01.2023 09:45;183
10.01.2023 10:00;213
10.01.2023 10:15;300
10.01.2023 10:30;448
10.01.2023 10:45;589
10.01.2023 11:00;620
10.01.2023 11:15;517
10.01.2023 11:30;363
10.01.2023 11:45;304
10.01.2023 12:00;414
10.01.2023 12:15;738
10.01.2023 12:30;694
10.01.2023 12:45;762
10.01.2023 13:00;751
10.01.2023 13:15;856
10.01.2023 13:30;665
10.01.2023 13:45;525
10.01.2023 14:00;439
10.01.2023 14:15;386
10.01.2023 14:30;347
10.01.2023 14:45;315
10.01.2023 15:00;285
10.01.2023 15:15;284
10.01.2023 15:30;237
10.01.2023 15:45;211
10.01.2023 16:00;168
10.01.2023 16:15;119
10.01.2023 16:30;78
10.01.2023 16:45;80
10.01.2023 17:00;80
10.01.2023 17:15;78
10.01.2023 17:30;75
10.01.2023 17:45;72
10.01.2023 18:00;69
10.01.2023 18:15;71
10.01.2023 18:30;75
10.01.2023 18:45;80
10.01.2023 19:00;81
10.01.2023 19:15;82
10.01.2023 19:30;84
10.01.2023 19:45;80
10.01.2023 20:00;77
10.01.2023 20:15;84
10.01.2023 20:30;96
10.01.2023 20:45;88
10.01.2023 21:00;95
10.01.2023 21:15;99
10.01.2023 21:30;114
10.01.2023 21:45;127
10.01.2023 22:00;135
10.01.2023 22:15;138
10.01.2023 22:30;142
10.01.2023 22:45;148
10.01.2023 23:00;156
10.01.2023 23:15;145
10.01.2023 23:30;168
10.01.2023 23:45;156
11.01.2023 00:00;154
11.01.2023 00:15;146
11.01.2023 00:30;123
11.01.2023 00:45;122
11.01.2023 01:00;114
11.01.2023 01:15;121
11.01.2023 01:30;135
11.01.2023 01:45;136
11.01.2023 02:00;131
11.01.2023 02:15;128
11.01.2023 02:30;128
11.01.2023 02:45;125
11.01.2023 03:00;125
11.01.2023 03:15;124
11.01.2023 03:30;122
11.01.2023 03:45;122
11.01.2023 04:00;126
11.01.2023 04:15;124
11.01.2023 04:30;123
11.01.2023 04:45;126
11.01.2023 05:00;122
11.01.2023 05:15;120
11.01.2023 05:30;113
11.01.2023 05:45;104
11.01.2023 06:00;93
11.01.2023 06:15;74
11.01.2023 06:30;77
11.01.2023 06:45;120
11.01.2023 07:00;118
11.01.2023 07:15;103
11.01.2023 07:30;97
11.01.2023 07:45;97
11.01.2023 08:00;96
11.01.2023 08:15;82
11.01.2023 08:30;75
11.01.2023 08:45;82
11.01.2023 09:00;81
11.01.2023 09:15;79
11.01.2023 09:30;85
11.01.2023 09:45;98
11.01.2023 10:00;100
11.01.2023 10:15;96
11.01.2023 10:30;110
11.01.2023 10:45;119
11.01.2023 11:00;155
11.01.2023 11:15;188
11.01.2023 11:30;242
11.01.2023 11:45;289
11.01.2023 12:00;358
11.01.2023 12:15;531
11.01.2023 12:30;581
11.01.2023 12:45;526
11.01.2023 13:00;432
11.01.2023 13:15;280
11.01.2023 13:30;249
11.01.2023 13:45;273
11.01.2023 14:00;266
11.01.2023 14:15;303
11.01.2023 14:30;346
11.01.2023 14:45;373
11.01.2023 15:00;335
11.01.2023 15:15;274
11.01.2023 15:30;218
11.01.2023 15:45;190
11.01.2023 16:00;148
11.01.2023 16:15;105
11.01.2023 16:30;86
11.01.2023 16:45;87
11.01.2023 17:00;70
11.01.2023 17:15;64
11.01.2023 17:30;61
11.01.2023 17:45;66
11.01.2023 18:00;61
11.01.2023 18:15;61
11.01.2023 18:30;66
11.01.2023 18:45;66
11.01.2023 19:00;71
11.01.2023 19:15;73
11.01.2023 19:30;82
11.01.2023 19:45;76
11.01.2023 20:00;75
11.01.2023 20:15;87
11.01.2023 20:30;94
11.01.2023 20:45;92
11.01.2023 21:00;91
11.01.2023 21:15;92
11.01.2023 21:30;101
11.01.2023 21:45;117
11.01.2023 22:00;129
11.01.2023 22:15;134
11.01.2023 22:30;137
11.01.2023 22:45;143
11.01.2023 23:00;152
11.01.2023 23:15;165
11.01.2023 23:30;168
11.01.2023 23:45;168
12.01.2023 00:00;166
12.01.2023 00:15;135
12.01.2023 00:30;156
12.01.2023 00:45;152
12.01.2023 01:00;134
12.01.2023 01:15;160
12.01.2023 01:30;135
12.01.2023 01:45;171
12.01.2023 02:00;133
12.01.2023 02:15;173
12.01.2023 02:30;177
12.01.2023 02:45;140
12.01.2023 03:00;171
12.01.2023 03:15;175
12.01.2023 03:30;122
12.01.2023 03:45;174
12.01.2023 04:00;158
12.01.2023 04:15;135
12.01.2023 04:30;167
12.01.2023 04:45;175
12.01.2023 05:00;165
12.01.2023 05:15;132
12.01.2023 05:30;165
12.01.2023 05:45;137
12.01.2023 06:00;114
12.01.2023 06:15;120
12.01.2023 06:30;78
12.01.2023 06:45;117
12.01.2023 07:00;115
12.01.2023 07:15;105
12.01.2023 07:30;101
12.01.2023 07:45;98
12.01.2023 08:00;93
12.01.2023 08:15;77
12.01.2023 08:30;79
12.01.2023 08:45;85
12.01.2023 09:00;90
12.01.2023 09:15;101
12.01.2023 09:30;110
12.01.2023 09:45;136
12.01.2023 10:00;156
12.01.2023 10:15;155
12.01.2023 10:30;180
12.01.2023 10:45;335
12.01.2023 11:00;427
12.01.2023 11:15;438
12.01.2023 11:30;454
12.01.2023 11:45;540
12.01.2023 12:00;535
12.01.2023 12:15;545
12.01.2023 12:30;601
12.01.2023 12:45;494
12.01.2023 13:00;397